Wetbulb
58.83 58.86 59.05 59.14 59.59 59.57 58.91 58.34 56.41 51.92 51.84 50.54 46.97 45.17 45.78 45.91 48.17 48.65 49.64 54.06 54.30 54.36 54.07 54.25 54.11 54.11 54.22 54.04 53.89 53.74 53.10 51.77 50.70 50.09 49.42 48.81 48.38 48.08
58.38 58.50 58.51 58.77 58.47 58.33 58.19 58.20 57.35 55.90 52.75 49.06 45.03 43.88 45.14 45.16 48.00 47.54 48.49 50.13 51.80 51.69 51.15 51.01 51.08 51.24 50.89 50.88 51.00 50.71 50.08 49.53 49.33 48.82 47.52 46.91 46.74 46.74
55.06 54.47 54.17 54.20 53.79 54.44 55.06 55.13 54.88 54.64 53.60 44.68 43.73 43.03 43.10 44.00 44.93 45.60 45.44 44.56 45.58 49.18 48.96 48.51 48.33 48.20 48.31 48.57 48.85 48.77 48.19 47.65 46.58 46.15 46.26 45.27 45.39 45.12
50.61 51.36 49.32 49.55 49.95 50.63 50.89 51.65 52.36 52.67 52.22 51.60 42.17 41.89 42.69 43.44 43.92 43.59 42.95 41.83 41.09 45.63 46.39 46.33 46.19 46.43 46.94 47.26 46.91 46.04 45.01 44.30 43.93 43.99 43.08 42.59 42.94 43.53
45.41 45.39 45.38 46.01 47.43 48.07 48.77 49.32 50.08 49.72 50.44 46.19 41.46 41.62 41.63 42.46 40.84 39.50 37.93 37.45 38.31 43.17 44.77 45.05 45.75 45.76 45.11 44.62 44.03 43.21 42.29 41.86 41.65 41.35 40.99 41.25 41.97 42.55
43.73 43.61 43.96 43.90 43.60 45.10 46.75 47.54 47.96 47.91 47.09 44.56 40.97 39.34 40.07 40.78 40.07 36.95 34.98 35.29 34.69 36.23 38.42 38.58 41.44 42.34 42.37 42.27 42.21 41.52 40.51 39.59 39.73 40.61 40.65 40.85 40.99 41.47
40.91 41.03 41.19 42.31 44.63 46.01 46.12 45.72 46.12 45.43 44.25 40.35 37.34 37.56 36.13 37.01 37.77 36.54 34.90 33.22 31.91 30.93 28.62 28.63 30.05 29.38 31.62 36.38 37.60 40.60 40.39 39.51 39.31 40.43 41.16 41.01 41.04 40.86
37.44 37.49 38.64 40.77 41.11 44.86 45.94 46.17 45.92 43.33 40.99 38.63 37.05 37.24 36.39 36.79 35.70 34.38 32.49 30.68 31.08 27.58 27.15 26.48 27.92 27.88 29.64 29.36 36.29 38.73 39.18 39.23 39.18 39.81 40.59 41.06 40.83 40.57
37.38 36.21 37.92 39.48 39.70 39.30 40.27 40.12 39.88 41.11 43.32 41.14 38.57 38.26 37.07 36.59 34.79 32.12 30.98 29.13 25.85 26.50 26.41 24.76 27.43 27.90 28.70 30.93 37.23 39.26 39.11 38.72 38.69 39.25 40.03 40.60 40.72 40.28
38.27 37.83 37.75 36.99 36.99 37.89 35.70 34.55 34.38 35.59 36.02 35.99 37.36 38.19 37.39 36.14 35.58 34.02 31.12 28.24 27.82 27.19 26.42 23.42 26.53 26.52 28.01 28.15 36.92 39.12 38.40 37.40 37.74 38.69 39.27 40.27 40.39 39.28
36.03 36.85 37.42 37.35 39.02 39.26 34.16 32.70 32.48 32.96 37.91 39.32 38.72 38.36 38.05 37.54 34.21 31.70 27.40 26.99 23.69 25.71 26.62 26.01 25.70 26.89 27.02 27.34 28.68 37.02 37.00 36.42 37.24 39.17 39.59 39.91 39.17 38.71
32.60 34.30 39.04 37.91 39.38 39.70 32.75 31.07 30.45 31.26 31.76 31.90 31.35 32.05 32.94 35.60 34.62 29.66 28.37 22.73 24.54 23.84 26.91 25.68 25.13 24.37 21.27 25.23 26.58 27.08 27.89 34.92 36.83 38.12 38.41 38.34 37.76 30.65
31.00 31.40 33.82 38.45 39.38 40.10 36.77 30.47 30.33 31.45 32.46 29.21 28.99 29.32 28.55 28.58 28.01 27.92 27.59 25.29 20.53 23.01 28.16 24.17 16.15 19.24 17.20 19.34 23.22 24.79 25.81 26.04 26.41 27.75 32.57 34.02 35.04 33.83
32.82 33.27 33.57 36.91 38.86 39.00 36.72 35.63 35.12 33.71 28.01 26.45 26.49 25.03 24.69 24.73 25.81 28.12 28.28 27.30 27.17 27.37 29.67 22.62 16.92 16.42 9.27 12.56 18.71 22.41 20.63 22.31 23.90 25.72 25.69 29.60 31.24 32.62
33.46 34.26 36.63 36.71 38.03 36.41 36.01 34.44 35.07 29.12 27.11 25.00 22.74 22.05 22.76 22.87 24.75 24.20 25.62 25.83 25.61 27.26 24.68 19.19 18.54 9.06 11.48 9.61 12.81 17.15 17.59 20.83 21.94 19.36 20.53 21.85 23.16 24.59
36.44 34.17 35.04 35.65 36.46 33.71 32.57 30.92 28.92 27.64 25.53 24.47 23.11 23.92 25.61 24.10 21.67 23.33 22.72 22.24 22.01 22.64 25.69 20.14 19.63 17.70 13.79 16.30 15.76 14.35 18.36 15.47 15.95 18.18 18.77 20.90 23.25 24.40
33.63 30.57 30.35 30.43 29.18 28.99 27.88 26.68 26.72 26.83 25.66 24.47 23.97 23.93 25.67 24.91 23.95 22.81 22.51 21.48 20.26 20.17 20.38 23.77 26.11 25.45 25.67 19.11 14.67 18.62 15.73 16.92 20.03 21.04 21.74 18.75 21.20 23.13
33.70 28.71 28.66 28.40 27.68 27.88 26.93 26.08 25.28 27.46 26.45 25.56 24.65 25.72 25.23 24.81 24.23 22.20 21.65 21.28 20.68 21.17 19.49 21.59 24.52 25.47 23.48 23.45 26.98 14.92 14.74 15.40 20.70 23.58 20.00 21.14 20.99 22.49
33.71 30.00 27.70 27.25 27.04 27.43 26.70 25.20 24.78 24.98 26.23 26.81 25.65 24.88 25.74 24.93 26.97 23.11 22.18 21.67 20.95 20.78 19.74 17.60 15.81 20.06 15.03 14.33 22.77 29.99 23.02 19.59 23.36 22.87 23.63 23.50 23.35 24.15
33.39 32.33 28.72 27.80 26.21 26.80 26.29 26.02 26.13 24.36 25.52 25.70 25.10 25.95 25.56 24.81 23.72 21.91 22.43 21.13 22.20 21.22 19.32 17.09 15.86 18.48 18.15 15.94 16.14 21.81 29.16 20.14 21.77 20.62 21.24 23.22 24.41 27.74
33.80 32.76 31.65 30.31 28.61 27.14 26.78 26.00 26.17 26.01 24.71 23.38 23.80 23.17 22.74 23.25 23.38 23.50 23.27 26.05 24.77 21.74 20.62 20.81 21.02 27.18 21.62 21.58 20.42 22.32 23.07 29.02 24.92 19.85 19.53 19.14 20.10 22.21
33.78 33.06 32.53 31.75 30.87 29.59 28.67 27.85 26.20 26.44 27.01 25.93 24.78 23.96 23.16 23.11 22.89 23.20 23.64 23.19 25.28 25.57 23.01 20.33 20.14 24.38 22.26 21.65 21.31 21.02 22.24 23.89 27.59 29.96 28.86 25.83 17.71 16.15
33.63 33.22 33.15 32.84 32.50 31.85 30.47 29.16 28.46 27.95 26.72 26.86 25.97 25.13 24.92 23.64 24.48 24.68 23.93 24.21 24.48 24.42 25.54 23.36 19.75 20.39 21.81 22.85 23.34 22.65 22.09 20.60 21.26 21.57 22.66 28.19 29.41 30.09
MSLP
1020.21 1020.35 1020.43 1020.23 1020.60 1020.62 1020.66 1020.90 1021.39 1021.63 1021.45 1021.56 1022.40 1022.70 1022.94 1023.13 1023.28 1023.39 1023.48 1023.05 1022.92 1023.19 1023.55 1023.31 1023.26 1023.27 1023.56 1023.89 1024.05 1024.50 1024.54 1024.97 1025.20 1025.42 1025.69 1025.80 1026.00 1026.23
1020.23 1020.47 1020.28 1020.31 1020.48 1020.42 1020.51 1020.63 1020.68 1020.93 1021.40 1021.68 1022.47 1022.83 1023.15 1023.35 1023.19 1023.27 1023.44 1023.34 1023.54 1023.53 1023.76 1023.76 1023.92 1023.91 1024.05 1024.24 1024.33 1024.60 1025.05 1025.36 1025.53 1025.74 1026.00 1025.99 1026.14 1026.38
1020.40 1020.64 1020.84 1020.73 1020.68 1020.64 1020.77 1020.71 1020.69 1020.80 1021.10 1021.79 1022.31 1022.88 1022.99 1023.16 1023.22 1023.60 1023.55 1023.91 1023.77 1023.80 1023.90 1024.13 1024.26 1024.41 1024.51 1024.60 1024.61 1024.99 1025.13 1025.67 1026.03 1025.99 1026.12 1026.37 1026.41 1026.54
1020.81 1020.97 1021.30 1021.17 1021.00 1020.90 1020.84 1020.82 1020.79 1020.71 1020.95 1021.52 1022.29 1022.71 1022.79 1023.14 1022.96 1023.51 1023.89 1024.06 1024.05 1024.00 1024.04 1024.43 1024.41 1024.48 1024.50 1024.90 1025.03 1025.36 1025.54 1025.79 1026.28 1026.40 1026.52 1026.67 1026.68 1026.71
1021.31 1021.37 1021.43 1021.40 1021.26 1021.19 1021.07 1021.02 1020.83 1020.63 1020.65 1021.00 1022.06 1022.56 1022.65 1023.07 1023.65 1023.73 1024.11 1024.45 1024.32 1024.37 1024.27 1024.54 1024.52 1024.68 1024.65 1025.08 1025.55 1025.60 1025.87 1026.03 1026.50 1026.66 1026.89 1026.93 1026.88 1026.94
1021.55 1021.71 1021.56 1021.68 1021.44 1021.19 1021.04 1021.01 1020.99 1020.75 1020.73 1021.16 1021.91 1022.29 1022.56 1022.99 1023.24 1023.88 1024.38 1024.53 1024.68 1024.72 1024.73 1024.84 1024.52 1025.06 1024.91 1025.06 1025.71 1025.81 1025.96 1026.21 1026.61 1026.78 1027.01 1027.06 1027.07 1027.12
1021.61 1021.89 1021.79 1021.73 1021.30 1021.01 1020.94 1021.08 1021.02 1020.71 1020.86 1021.24 1021.63 1022.10 1022.45 1022.97 1023.02 1023.56 1024.06 1024.65 1024.83 1025.23 1025.57 1025.55 1025.38 1025.58 1025.37 1025.35 1025.67 1025.79 1025.94 1026.16 1026.52 1026.75 1026.91 1026.99 1027.10 1027.22
1021.65 1021.48 1021.56 1021.41 1021.64 1021.14 1020.90 1020.98 1020.98 1020.96 1020.96 1021.11 1021.30 1021.73 1021.93 1022.24 1022.70 1023.25 1024.01 1024.83 1025.44 1025.33 1025.44 1025.70 1025.71 1025.93 1025.51 1025.60 1025.76 1025.75 1025.83 1026.01 1026.36 1026.63 1026.78 1026.88 1027.07 1027.18
1021.84 1021.84 1021.78 1021.77 1021.83 1021.73 1021.56 1021.41 1021.32 1021.20 1021.08 1021.00 1021.13 1021.26 1021.52 1021.63 1022.11 1022.92 1023.36 1024.05 1024.57 1024.96 1025.20 1025.69 1026.12 1025.91 1025.56 1025.50 1025.59 1025.57 1025.72 1026.01 1026.31 1026.54 1026.68 1026.80 1026.95 1027.11
1021.77 1021.83 1021.85 1021.79 1021.73 1021.93 1022.01 1021.84 1021.69 1021.71 1021.50 1021.31 1021.17 1021.24 1021.19 1021.19 1021.63 1021.87 1022.72 1023.92 1024.50 1024.89 1025.00 1025.82 1026.14 1025.80 1025.66 1025.69 1025.60 1025.55 1025.75 1026.02 1026.26 1026.37 1026.50 1026.61 1026.80 1027.08
1021.60 1021.56 1021.69 1021.73 1021.75 1022.00 1022.12 1022.12 1022.11 1022.16 1021.83 1021.49 1021.26 1021.22 1021.24 1021.36 1021.83 1022.22 1022.97 1023.81 1024.84 1025.01 1025.09 1025.48 1026.11 1026.03 1025.99 1025.98 1025.96 1025.61 1025.77 1026.00 1026.17 1026.10 1026.17 1026.39 1026.79 1026.95
1021.77 1021.63 1021.63 1021.71 1021.76 1021.81 1022.07 1022.18 1022.27 1022.35 1022.35 1022.27 1022.20 1022.14 1022.02 1021.99 1022.33 1022.40 1022.78 1023.80 1024.63 1025.04 1024.88 1025.44 1026.11 1026.14 1026.57 1026.43 1026.30 1026.22 1026.18 1026.11 1026.09 1026.09 1026.29 1026.51 1026.68 1027.24
1021.80 1021.79 1021.74 1021.64 1021.56 1021.58 1021.77 1022.12 1022.23 1022.28 1022.52 1022.76 1022.85 1022.88 1022.91 1022.91 1023.06 1023.11 1023.18 1023.48 1024.09 1024.40 1024.43 1025.08 1026.30 1026.43 1026.60 1026.90 1026.67 1026.55 1026.44 1026.61 1026.69 1026.75 1026.77 1026.80 1026.79 1026.91
1021.64 1021.58 1021.63 1021.64 1021.56 1021.54 1021.68 1021.91 1022.10 1022.29 1022.67 1023.07 1023.26 1023.39 1023.54 1023.70 1023.79 1023.74 1023.80 1023.83 1023.89 1023.85 1024.04 1024.78 1025.94 1026.31 1026.79 1027.43 1027.19 1026.78 1026.83 1026.77 1026.80 1026.90 1027.07 1026.93 1026.83 1026.82
1021.24 1021.40 1021.49 1021.55 1021.59 1021.62 1021.64 1021.72 1021.85 1022.37 1022.99 1023.15 1023.42 1023.65 1023.68 1023.84 1024.07 1024.27 1024.44 1024.44 1024.47 1024.43 1024.44 1024.74 1025.33 1026.24 1026.50 1027.02 1027.15 1027.17 1026.95 1026.84 1026.85 1027.13 1027.23 1027.20 1027.11 1027.04
1020.88 1021.10 1021.28 1021.34 1021.49 1021.53 1021.64 1021.86 1022.12 1022.56 1022.98 1023.09 1023.34 1023.51 1023.83 1024.02 1024.16 1024.37 1024.69 1024.76 1024.87 1024.87 1024.73 1024.84 1025.16 1025.78 1026.24 1026.38 1026.77 1026.98 1026.64 1027.07 1026.98 1027.09 1027.13 1026.93 1026.68 1026.63
1020.68 1021.00 1021.17 1021.29 1021.53 1021.66 1021.72 1022.01 1022.25 1022.57 1022.90 1022.88 1023.11 1023.41 1023.73 1024.00 1024.17 1024.34 1024.53 1024.76 1024.87 1024.85 1024.93 1024.96 1025.03 1025.22 1025.40 1025.86 1026.16 1026.12 1026.37 1026.46 1026.42 1026.42 1026.69 1026.67 1026.24 1026.08
1020.30 1020.63 1020.91 1021.13 1021.33 1021.48 1021.60 1021.88 1022.13 1022.22 1022.55 1022.72 1022.90 1023.04 1023.39 1023.68 1023.96 1024.27 1024.41 1024.53 1024.62 1024.61 1024.87 1024.86 1025.02 1025.31 1025.49 1024.98 1024.93 1025.56 1025.82 1026.00 1025.97 1026.02 1026.40 1026.39 1025.94 1025.42
1019.73 1020.18 1020.52 1020.71 1020.92 1021.14 1021.28 1021.57 1021.81 1021.85 1022.08 1022.33 1022.54 1022.71 1022.88 1023.23 1023.45 1023.82 1024.02 1024.10 1024.12 1024.27 1024.60 1024.80 1025.23 1025.47 1025.66 1025.28 1024.30 1024.21 1024.95 1025.22 1025.50 1025.63 1025.60 1025.61 1025.27 1024.81
1019.20 1019.56 1019.90 1020.17 1020.44 1020.74 1020.85 1021.04 1021.24 1021.44 1021.68 1021.77 1021.96 1022.11 1022.39 1022.73 1023.02 1023.13 1023.38 1023.49 1023.58 1023.81 1024.24 1024.62 1024.84 1024.89 1025.08 1024.91 1024.40 1024.16 1024.09 1024.79 1025.01 1025.11 1025.06 1024.87 1024.49 1024.00
1018.67 1018.89 1019.10 1019.42 1019.71 1019.98 1020.15 1020.37 1020.53 1020.75 1020.91 1021.12 1021.29 1021.55 1021.76 1022.08 1022.26 1022.41 1022.56 1022.71 1022.90 1023.17 1023.46 1023.64 1023.49 1023.66 1024.35 1024.50 1024.46 1023.97 1023.66 1023.57 1023.95 1024.31 1024.45 1024.53 1024.17 1023.74
1018.05 1018.27 1018.44 1018.66 1018.85 1019.08 1019.29 1019.53 1019.83 1020.00 1020.11 1020.30 1020.49 1020.70 1020.94 1021.15 1021.29 1021.44 1021.63 1021.86 1021.91 1022.08 1022.31 1022.54 1022.99 1023.11 1023.63 1023.70 1023.33 1023.30 1023.19 1023.22 1023.18 1023.22 1023.44 1023.49 1023.60 1023.29
1017.51 1017.59 1017.68 1017.77 1017.94 1018.14 1018.36 1018.55 1018.73 1018.81 1019.01 1019.21 1019.43 1019.62 1019.90 1020.11 1020.20 1020.36 1020.54 1020.74 1021.01 1021.28 1021.49 1021.92 1022.37 1022.65 1022.67 1022.60 1022.66 1022.68 1022.77 1022.90 1023.04 1023.02 1022.73 1022.43 1022.17 1021.88
Wind_Speed
3 3 3 2 4 4 4 5 6 4 4 4 3 2 3 2 2 2 1 7 12 12 10 11 12 11 13 12 12 9 11 9 8 7 6 5 4 3
3 5 4 1 3 2 3 4 5 5 4 1 1 2 3 2 4 3 3 5 8 9 7 8 9 9 9 8 9 9 7 6 7 7 5 4 3 3
2 3 4 3 2 2 3 2 2 3 6 1 2 1 2 4 4 3 3 3 3 7 7 7 7 7 7 7 9 9 8 6 5 5 6 3 2 3
5 5 5 4 5 4 3 5 4 3 3 7 2 2 2 2 3 4 2 2 2 3 5 5 6 6 8 8 9 8 7 6 4 5 4 2 2 2
2 2 3 4 4 3 3 4 3 2 3 3 3 1 1 3 2 3 2 1 2 1 5 5 7 8 9 7 7 7 6 5 4 3 2 2 3 3
2 2 3 3 3 4 4 4 4 3 2 2 2 2 2 2 2 3 2 0 2 1 3 4 5 5 5 6 6 7 6 4 3 5 5 5 4 3
2 3 3 5 8 6 2 5 4 3 1 2 2 2 3 3 6 3 2 2 1 2 1 1 1 1 1 2 2 6 7 6 6 6 7 6 5 3
5 5 5 7 8 11 7 7 5 3 3 3 3 3 3 3 3 4 4 3 3 2 3 2 1 2 1 1 5 6 7 7 7 7 7 6 5 4
4 4 4 3 5 4 6 7 8 9 5 2 4 4 4 6 6 4 4 3 4 2 3 2 1 2 0 1 5 7 7 6 5 6 7 7 6 5
1 2 3 4 3 3 3 4 5 5 5 3 3 3 3 4 4 4 5 5 4 2 2 3 1 1 1 1 4 7 6 4 3 6 8 8 8 5
2 1 2 3 3 2 1 1 3 3 6 8 7 5 4 7 7 6 3 5 1 2 2 3 1 1 1 1 3 1 4 3 3 6 7 8 7 7
3 1 3 2 3 3 0 1 2 1 2 3 4 6 9 7 5 4 4 4 3 1 3 3 2 2 1 1 1 2 2 2 0 5 6 6 4 3
2 2 2 4 4 4 4 3 3 3 2 2 2 2 3 4 4 4 4 3 3 1 4 4 2 1 3 0 1 1 1 1 2 3 3 2 2 3
3 2 3 6 5 4 2 5 6 4 2 1 0 0 1 2 2 3 3 3 1 2 6 4 3 3 3 1 1 2 1 0 2 1 1 1 3 5
3 5 7 6 5 4 5 4 7 3 2 2 2 2 2 3 3 3 3 4 4 3 3 3 4 3 3 3 2 2 1 1 1 2 1 0 1 1
4 4 5 5 7 5 3 2 2 3 3 2 2 1 2 2 2 2 2 1 2 1 2 3 5 5 2 3 3 2 2 1 1 1 1 2 2 3
3 2 2 2 2 3 2 2 2 2 2 2 2 3 2 2 2 2 2 1 2 2 1 1 3 3 2 5 2 4 3 3 3 2 0 2 3 4
3 3 3 4 4 4 4 3 3 5 3 2 2 3 3 4 3 2 2 2 3 3 2 1 2 1 1 5 13 3 2 3 3 3 3 2 3 3
4 5 4 4 3 3 3 4 3 4 4 4 3 4 3 3 7 4 4 3 3 3 3 2 2 2 2 2 2 14 6 2 3 3 4 5 4 6
4 6 6 5 4 4 3 4 3 3 4 5 4 5 5 5 3 3 5 4 4 3 3 2 3 4 5 4 2 2 11 4 4 2 2 2 6 15
6 5 6 6 6 5 5 4 5 5 4 4 5 5 6 5 6 5 6 10 9 4 6 6 8 14 2 2 2 2 3 14 8 5 2 2 2 2
5 6 5 6 6 6 6 6 6 6 6 6 6 6 6 7 7 7 7 6 7 7 7 3 3 4 5 7 7 5 2 1 8 17 15 12 4 3
5 5 6 6 6 6 6 6 7 7 7 7 7 7 7 7 8 7 7 7 6 7 7 5 4 3 5 7 9 6 5 4 3 4 6 17 22 25
Wind_Direction
288 286 254 268 244 234 216 211 227 267 264 221 191 165 160 146 165 132 131 93 87 81 79 84 87 89 86 86 82 84 103 119 128 126 122 104 94 84
245 259 262 262 273 268 246 243 234 246 261 110 183 146 170 163 141 125 116 87 97 94 92 89 92 99 107 117 125 127 133 125 125 120 123 115 117 96
39 8 316 346 350 339 320 288 251 229 262 152 132 186 143 162 134 113 99 82 70 106 101 106 109 111 116 125 123 128 126 129 132 134 116 99 110 107
359 348 336 345 346 334 315 301 288 260 248 273 145 190 157 194 138 137 140 115 103 124 126 138 133 138 130 126 122 126 128 125 130 118 106 104 125 131
52 10 333 347 340 328 313 296 280 264 229 159 159 156 112 150 135 92 109 58 84 175 140 149 141 136 134 135 146 137 132 129 147 134 144 160 145 146
36 357 350 344 331 322 322 297 287 270 213 152 151 154 139 137 134 136 165 151 140 60 110 152 133 163 160 160 181 161 150 149 198 197 193 180 170 166
34 4 5 344 340 322 306 298 290 266 209 157 147 142 160 160 190 156 140 136 123 175 147 356 64 52 20 20 207 176 184 189 204 207 200 190 184 201
1 353 352 351 335 332 341 323 306 277 227 181 160 198 187 173 141 163 126 144 213 219 152 195 113 219 181 196 228 195 200 199 203 205 206 201 202 222
359 340 339 347 347 340 8 32 24 8 334 231 200 207 192 192 144 152 151 149 179 180 121 151 258 207 198 275 229 204 183 177 190 213 223 225 222 218
20 349 324 324 336 330 346 17 19 6 354 330 306 293 243 167 172 158 139 114 78 86 106 162 238 187 19 344 337 177 177 191 229 240 239 232 228 206
4 357 316 309 297 285 329 24 42 13 18 54 71 81 101 142 138 123 124 118 104 197 169 130 195 124 49 359 347 280 176 200 234 221 211 190 183 225
301 296 281 245 274 243 312 262 260 257 8 29 15 31 43 77 68 37 134 133 124 40 200 131 162 152 15 352 356 27 42 46 257 185 187 212 230 111
246 282 269 266 264 252 175 222 243 168 164 98 68 52 44 48 48 50 69 128 135 153 184 113 150 97 89 264 348 23 77 42 42 36 13 336 265 219
262 254 256 263 256 247 249 232 242 184 146 156 155 44 69 51 40 60 60 68 55 159 144 122 134 136 120 21 199 338 350 360 124 117 350 335 329 299
216 246 254 245 242 254 246 249 262 143 187 175 194 219 201 152 107 76 53 70 59 78 111 120 127 138 118 156 185 231 102 284 167 174 156 164 273 282
219 241 238 234 233 211 222 301 144 180 191 196 180 158 109 119 129 132 140 140 96 23 95 138 136 134 140 177 158 234 196 224 332 200 203 259 261 239
194 197 222 219 217 211 200 222 209 220 215 182 157 160 177 162 167 160 151 159 150 162 166 185 184 181 191 171 223 208 210 230 209 209 32 294 248 243
206 198 224 216 217 214 206 219 215 231 208 189 181 180 186 189 182 174 190 183 178 168 148 170 118 164 343 255 216 191 214 203 204 191 201 229 266 243
206 211 222 206 212 210 194 192 217 209 192 204 200 198 193 192 209 199 202 190 199 170 188 158 138 143 198 256 277 201 204 210 181 215 215 216 259 269
194 220 218 207 198 217 202 203 213 191 209 212 210 209 200 196 193 198 200 198 202 172 189 180 185 186 190 206 219 273 203 177 185 206 222 228 248 270
227 221 218 211 211 211 212 215 216 218 207 201 211 207 202 196 218 208 206 215 212 195 221 221 217 216 174 89 262 223 234 211 194 181 197 218 261 270
223 227 220 217 219 214 214 211 213 222 222 209 215 207 205 203 213 207 203 207 219 214 226 210 169 171 180 207 235 234 195 227 231 236 225 215 178 249
234 232 232 227 225 225 220 216 219 225 214 216 213 212 207 212 212 212 206 207 210 214 217 199 174 175 210 214 227 236 223 197 193 241 249 250 251 249